CDT,Max TemperatureF,Mean TemperatureF,Min TemperatureF,Max Dew PointF,MeanDew PointF,Min DewpointF,Max Humidity, Mean Humidity, Min Humidity, Max Sea Level PressureIn, Mean Sea Level PressureIn, Min Sea Level PressureIn, Max VisibilityMiles, Mean VisibilityMiles, Min VisibilityMiles, Max Wind SpeedMPH, Mean Wind SpeedMPH, Max Gust SpeedMPH,PrecipitationIn, CloudCover, Events, WindDirDegrees
2013-5-1,51,43,35,48,41,32,94,83,67,30.38,30.18,29.94,10,10,4,15,7,24,0.00,8,Rain,345
2013-5-2,35,32,30,34,30,27,93,88,86,30.40,30.35,30.29,10,7,1,15,10,22,0.00,8,Rain-Snow,359
2013-5-3,35,32,30,34,30,27,93,91,86,30.29,30.15,30.07,10,7,2,16,9,20,0.00,8,Rain-Snow,22
2013-5-4,71,53,35,54,43,34,100,80,41,30.11,30.07,30.03,10,9,1,12,7,,0.00,4,Rain,28
2013-5-5,69,56,42,46,43,37,93,65,31,30.11,30.08,30.03,10,10,10,9,5,,0.00,0,,47
2013-5-6,71,56,42,46,42,34,93,58,25,30.10,30.06,30.01,10,10,10,7,2,,0.00,0,,160
2013-5-7,75,60,44,48,39,28,93,46,19,30.08,30.03,29.99,10,10,10,9,3,,0.00,1,,135
2013-5-8,77,60,44,48,42,36,93,49,24,30.03,30.00,29.96,10,10,10,10,3,,0.00,1,,130
2013-5-9,62,50,39,52,45,36,94,80,48,30.04,29.99,29.94,10,10,7,17,9,25,0.00,7,Rain,38
2013-5-10,62,48,35,36,30,23,93,54,23,30.04,29.98,29.88,10,10,10,17,10,24,0.00,2,,3
2013-5-11,53,44,35,39,31,25,87,63,46,30.04,29.92,29.80,10,10,5,25,12,38,0.00,7,Rain-Snow,311
2013-5-12,50,41,32,25,21,12,65,47,24,30.10,30.06,30.04,10,10,7,17,10,28,0.00,2,,325
2013-5-13,57,42,28,36,28,21,93,54,31,30.13,30.02,29.78,10,10,10,13,3,17,0.00,1,Rain,177
2013-5-14,78,60,42,54,45,34,81,52,28,29.78,29.65,29.49,10,10,10,17,6,23,0.00,0,Rain,143
2013-5-15,75,66,57,46,41,36,67,44,24,29.87,29.77,29.56,10,10,10,17,12,25,0.00,0,,295
2013-5-16,77,62,48,52,41,30,93,48,21,30.02,29.92,29.86,10,10,10,14,2,,0.00,1,,43
2013-5-17,60,54,48,52,46,37,94,74,54,30.09,30.06,30.00,10,9,2,17,12,24,0.00,5,Rain,109
2013-5-18,73,62,50,64,56,48,94,82,69,30.07,30.00,29.91,10,9,5,16,9,20,0.00,4,Rain,128
2013-5-19,78,70,62,66,63,59,94,78,57,29.93,29.81,29.66,10,8,4,17,9,23,0.00,4,Rain,135
2013-5-20,77,68,59,64,59,55,94,75,50,29.74,29.65,29.57,10,10,5,23,9,28,0.00,4,Rain,171
2013-5-21,69,63,55,63,59,52,94,87,73,29.70,29.62,29.55,10,9,2,12,5,13,0.00,7,Rain,217
2013-5-22,57,54,48,55,52,46,100,93,87,29.91,29.74,29.68,10,8,0,17,5,25,0.00,8,Fog-Rain,30
2013-5-23,57,48,39,46,36,30,93,65,36,30.33,30.15,29.92,10,10,10,20,12,26,0.00,3,Rain,13
2013-5-24,60,46,32,45,36,30,93,67,39,30.43,30.35,30.29,10,10,10,8,2,,0.00,0,,137
2013-5-25,62,54,46,45,42,37,87,65,39,30.36,30.31,30.28,10,10,10,14,7,21,0.00,2,,133
2013-5-26,62,50,39,45,40,36,93,62,42,30.31,30.24,30.16,10,10,10,16,8,22,0.00,1,,107
2013-5-27,62,54,46,52,45,37,88,69,55,30.17,30.02,29.91,10,10,10,25,12,34,0.00,7,Rain,106
2013-5-28,57,54,50,55,51,46,100,92,87,29.90,29.79,29.73,10,6,0,15,9,20,0.00,8,Fog-Rain,102
2013-5-29,75,65,55,66,59,54,100,90,73,29.88,29.83,29.78,10,7,0,18,3,33,0.00,7,Fog-Rain,184
2013-5-30,77,70,62,68,65,61,94,86,69,29.83,29.73,29.64,10,9,2,20,9,26,0.00,5,Rain,155
2013-5-31,75,66,57,64,60,55,94,79,57,29.70,29.66,29.62,10,10,5,20,12,26,0.00,5,Rain,172